Rockland, ME

2:52 AM EDT on April 21, 2018 (GMT -0400)
Knox County Regional

Weather History for KRKD - November, 2011

Change the Weather History Date:

Tuesday, November 29, 2011

  Actual Average Record
Temperature  
Mean Temperature 50 °F -  
Max Temperature 55 °F 39 °F 55 °F (2011)
Min Temperature 44 °F 27 °F 10 °F (2002)
Degree Days  
Heating Degree Days 16    
Moisture  
Dew Point 43 °F    
Average Humidity 78    
Maximum Humidity 87    
Minimum Humidity 71    
Precipitation  
Precipitation 0.00 in - - ()
Sea Level Pressure  
Sea Level Pressure 30.10 in    
Wind  
Wind Speed 6 mph (ENE)    
Max Wind Speed 10 mph    
Max Gust Speed -    
Visibility 10 miles    
Events      
Averages and records for this station are not official NWS values.
T = Trace of Precipitation, MM = Missing Value Source: NWS Daily Summary

Daily Weather History Graph

Daily Weather History Graph

Search for Another Location

Airport or City:

Astronomy

Nov. 29, 2011 Rise Set
Actual Time 6:48 AM EST 4:00 PM EST
Civil Twilight 6:16 AM EST 4:32 PM EST
Nautical Twilight 5:40 AM EST 5:08 PM EST
Astronomical Twilight 5:05 AM EST 5:43 PM EST
Moon 10:29 AM EST (11/29) 8:54 PM EST (11/29)
Length of Visible Light 10h 16m
Length of Day
9h 11m
Waxing Crescent, 24% of the Moon is Illuminated
Nov 29
Waxing Crescent
Dec 2
First Quarter
Dec 10
Full
Dec 17
Last Quarter
Dec 24
New

Hourly Weather History & Observations

Time (EST) Temp. Windchill Dew Point Humidity Pressure Visibility Wind Dir Wind Speed Gust Speed Precip Events Conditions
12:55 AM 46.4 °F 43.5 °F 39.2 °F 76% 30.13 in 10.0 mi ENE 5.8 mph - N/A   Clear
1:15 AM 46.4 °F 43.5 °F 37.4 °F 71% 30.15 in 10.0 mi NE 5.8 mph - N/A   Clear
1:35 AM 46.4 °F 42.9 °F 39.2 °F 76% 30.15 in 10.0 mi ENE 6.9 mph - N/A   Clear
1:55 AM 46.4 °F 43.5 °F 37.4 °F 71% 30.15 in 10.0 mi ENE 5.8 mph - N/A   Clear
2:15 AM 44.6 °F 41.4 °F 37.4 °F 76% 30.15 in 10.0 mi ENE 5.8 mph - N/A   Clear
2:35 AM 44.6 °F 41.4 °F 37.4 °F 76% 30.14 in 10.0 mi ENE 5.8 mph - N/A   Clear
2:55 AM 44.6 °F 41.4 °F 37.4 °F 76% 30.15 in 10.0 mi ENE 5.8 mph - N/A   Clear
3:15 AM 44.6 °F 41.4 °F 37.4 °F 76% 30.14 in 10.0 mi NE 5.8 mph - N/A   Clear
3:35 AM 44.6 °F 42.2 °F 37.4 °F 76% 30.15 in 10.0 mi ENE 4.6 mph - N/A   Clear
3:55 AM 46.4 °F 44.3 °F 37.4 °F 71% 30.15 in 10.0 mi ENE 4.6 mph - N/A   Mostly Cloudy
4:15 AM 46.4 °F 43.5 °F 39.2 °F 76% 30.15 in 10.0 mi ENE 5.8 mph - N/A   Overcast
4:35 AM 46.4 °F 42.9 °F 39.2 °F 76% 30.15 in 10.0 mi ENE 6.9 mph - N/A   Overcast
4:55 AM 46.4 °F 42.9 °F 39.2 °F 76% 30.15 in 10.0 mi ENE 6.9 mph - N/A   Overcast
5:15 AM 46.4 °F 42.9 °F 39.2 °F 76% 30.15 in 10.0 mi ENE 6.9 mph - N/A   Overcast
5:35 AM 48.2 °F - 39.2 °F 71% 30.15 in 10.0 mi ENE 5.8 mph - N/A   Overcast
5:55 AM 48.2 °F - 39.2 °F 71% 30.15 in 10.0 mi ENE 5.8 mph - N/A   Overcast
6:35 AM 48.2 °F - 41.0 °F 76% 30.14 in 10.0 mi East 6.9 mph - N/A   Overcast
6:55 AM 48.2 °F - 39.2 °F 71% 30.15 in 10.0 mi East 8.1 mph - N/A   Overcast
7:15 AM 48.2 °F - 39.2 °F 71% 30.15 in 10.0 mi East 9.2 mph - N/A   Overcast
7:35 AM 48.2 °F - 41.0 °F 76% 30.15 in 10.0 mi East 9.2 mph - N/A   Overcast
7:55 AM 50.0 °F - 42.8 °F 76% 30.15 in 10.0 mi East 9.2 mph - N/A   Overcast
8:15 AM 50.0 °F - 42.8 °F 76% 30.14 in 10.0 mi East 10.4 mph - N/A   Overcast
8:35 AM 50.0 °F - 42.8 °F 76% 30.15 in 10.0 mi East 9.2 mph - N/A   Overcast
8:55 AM 50.0 °F - 42.8 °F 76% 30.15 in 10.0 mi East 9.2 mph - N/A   Overcast
9:15 AM 50.0 °F - 44.6 °F 82% 30.15 in 10.0 mi East 10.4 mph - N/A   Overcast
9:35 AM 50.0 °F - 44.6 °F 82% 30.15 in 10.0 mi East 6.9 mph - N/A   Overcast
9:55 AM 50.0 °F - 44.6 °F 82% 30.15 in 10.0 mi East 8.1 mph - N/A   Overcast
10:15 AM 50.0 °F - 44.6 °F 82% 30.14 in 10.0 mi East 9.2 mph - N/A   Overcast
10:35 AM 50.0 °F - 44.6 °F 82% 30.14 in 10.0 mi East 6.9 mph - N/A   Overcast
10:55 AM 51.8 °F - 44.6 °F 76% 30.13 in 10.0 mi East 6.9 mph - N/A   Overcast
11:35 AM 51.8 °F - 44.6 °F 76% 30.10 in 10.0 mi East 10.4 mph - N/A   Overcast
11:55 AM 51.8 °F - 44.6 °F 76% 30.11 in 9.0 mi East 5.8 mph - N/A   Overcast
12:15 PM 51.8 °F - 44.6 °F 76% 30.11 in 9.0 mi ESE 5.8 mph - N/A   Overcast
12:35 PM 51.8 °F - 44.6 °F 76% 30.10 in 8.0 mi East 6.9 mph - N/A   Overcast
12:55 PM 51.8 °F - 46.4 °F 82% 30.10 in 9.0 mi East 6.9 mph - N/A   Overcast
1:35 PM 51.8 °F - 44.6 °F 76% 30.09 in 9.0 mi ENE 5.8 mph - N/A   Overcast
1:55 PM 51.8 °F - 46.4 °F 82% 30.09 in 9.0 mi East 5.8 mph - N/A   Overcast
2:55 PM 51.8 °F - 46.4 °F 82% 30.07 in 10.0 mi ENE 4.6 mph - N/A   Overcast
3:15 PM 51.8 °F - 46.4 °F 82% 30.08 in 10.0 mi NE 3.5 mph - N/A   Mostly Cloudy
3:35 PM 51.8 °F - 46.4 °F 82% 30.07 in 10.0 mi NE 3.5 mph - N/A   Overcast
3:55 PM 51.8 °F - 44.6 °F 76% 30.07 in 10.0 mi NE 4.6 mph - N/A   Overcast
4:15 PM 50.0 °F - 44.6 °F 82% 30.07 in 10.0 mi NE 3.5 mph - N/A   Overcast
4:35 PM 50.0 °F - 44.6 °F 82% 30.06 in 10.0 mi NE 3.5 mph - N/A   Overcast
4:55 PM 50.0 °F - 44.6 °F 82% 30.06 in 10.0 mi NNE 4.6 mph - N/A   Overcast
5:15 PM 50.0 °F - 44.6 °F 82% 30.06 in 10.0 mi NE 4.6 mph - N/A   Overcast
5:35 PM 50.0 °F - 44.6 °F 82% 30.05 in 10.0 mi NNE 5.8 mph - N/A   Overcast
5:55 PM 50.0 °F - 44.6 °F 82% 30.05 in 10.0 mi NNE 5.8 mph - N/A   Overcast
6:15 PM 48.2 °F - 44.6 °F 87% 30.04 in 8.0 mi NNE 4.6 mph - N/A   Mostly Cloudy
6:35 PM 48.2 °F - 44.6 °F 87% 30.04 in 10.0 mi NNE 4.6 mph - N/A   Mostly Cloudy
6:55 PM 51.8 °F - 46.4 °F 82% 30.03 in 10.0 mi East 5.8 mph - N/A   Mostly Cloudy
7:15 PM 53.6 °F - 46.4 °F 77% 30.02 in 10.0 mi SE 6.9 mph - N/A   Mostly Cloudy
7:35 PM 53.6 °F - 46.4 °F 77% 30.02 in 10.0 mi East 5.8 mph - N/A   Overcast
7:55 PM 53.6 °F - 46.4 °F 77% 30.01 in 10.0 mi ESE 5.8 mph - N/A   Overcast
8:35 PM 53.6 °F - 46.4 °F 77% 29.99 in 10.0 mi East 4.6 mph - N/A   Overcast
8:55 PM 53.6 °F - 46.4 °F 77% 29.98 in 10.0 mi ESE 4.6 mph - N/A   Overcast
9:15 PM 53.6 °F - 48.2 °F 82% 29.97 in 10.0 mi SE 8.1 mph - N/A   Overcast
9:35 PM 55.4 °F - 48.2 °F 77% 29.95 in 10.0 mi SE 6.9 mph - N/A   Overcast
9:55 PM 55.4 °F - 48.2 °F 77% 29.93 in 10.0 mi ESE 5.8 mph - N/A   Overcast
10:15 PM 55.4 °F - 48.2 °F 77% 29.92 in 10.0 mi SE 8.1 mph - N/A   Overcast
10:35 PM 55.4 °F - 50.0 °F 82% 29.91 in 10.0 mi SSE 12.7 mph 16.1 mph N/A   Overcast
10:55 PM 55.4 °F - 50.0 °F 82% 29.90 in 10.0 mi SE 11.5 mph 20.7 mph N/A   Overcast
11:15 PM 55.4 °F - 48.2 °F 77% 29.89 in 10.0 mi SE 8.1 mph 16.1 mph N/A   Scattered Clouds
11:35 PM 55.4 °F - 48.2 °F 77% 29.88 in 10.0 mi SSE 9.2 mph - N/A   Scattered Clouds
11:55 PM 55.4 °F - 50.0 °F 82% 29.87 in 10.0 mi SSE 12.7 mph 16.1 mph N/A   Overcast